Faro current weather conditions

sailwx.info

Wind from 230 at 4 knots

Air temperature 22.0° C
Dewpoint 16.0° C

Last reported at 2015-May-28 20:30 UTC.
Time now 2015-May-28 22:16 UTC

Location: N 37°01' W 007°58'.
View on Google Maps.

See reports from other nearby stations

  
Tides and Currents Weather Stations Pressure Air Temp Water Temp Dewpoint Dewpoint Depression Visibility Wind Speed Wind Dir Waves Ship Positions
date/time (UTC)wind fromknots sea level pressurealtimeterstation pressurevisibilityair tempwater tempwave heightnotes
2015-May-28 21:30 22.0
2015-May-28 21:00 250 4 22.0
2015-May-28 20:30 230 4 22.0
2015-May-28 20:00 260 5 24.0
2015-May-28 19:30 270 6 24.0
2015-May-28 19:00 190 4 25.0
2015-May-28 18:30 27.0
2015-May-28 18:00 260 3 26.0
2015-May-28 17:30 120 7 25.0
2015-May-28 17:00 120 8 26.0
2015-May-28 16:30 120 10 27.0
2015-May-28 16:00 120 10 28.0
2015-May-28 15:30 130 10 28.0
2015-May-28 15:00 130 11 28.0
2015-May-28 14:30 120 11 29.0
2015-May-28 14:00 110 11 28.0
2015-May-28 13:30 120 13 28.0
2015-May-28 13:00 110 13 28.0
2015-May-28 12:30 110 13 27.0
2015-May-28 12:00 100 13 27.0
2015-May-28 11:30 100 11 27.0
2015-May-28 11:00 110 15 27.0
2015-May-28 10:30 090 12 27.0
2015-May-28 10:00 090 8 26.0
2015-May-28 09:30 110 12 25.0
2015-May-28 09:00 100 10 24.0
2015-May-28 08:30 100 9 23.0
2015-May-28 08:00 120 8 23.0
2015-May-28 07:30 120 6 22.0
2015-May-28 07:00 22.0
2015-May-28 06:30 070 3 21.0
2015-May-28 06:00 090 3 20.0
2015-May-28 05:30 050 5 19.0
2015-May-28 05:00 030 7 19.0
2015-May-28 04:30 030 8 21.0
2015-May-28 04:00 030 7 21.0
2015-May-28 03:30 040 7 21.0
2015-May-28 03:00 030 7 21.0
2015-May-28 02:30 030 8 21.0
2015-May-28 02:00 040 7 21.0
2015-May-28 01:30 020 5 20.0
2015-May-28 01:00 070 3 20.0
2015-May-28 00:30 090 3 21.0
2015-May-28 00:00 060 3 21.0
2015-May-27 23:30 040 4 21.0
2015-May-27 23:00 030 3 21.0
2015-May-27 22:30 260 2 20.0
2015-May-27 22:00 290 3 21.0
2015-May-27 21:30 300 4 21.0
2015-May-27 21:00 280 3 21.0
2015-May-27 20:30 290 6 21.0
2015-May-27 20:00 260 7 21.0
2015-May-27 19:30 270 5 23.0
2015-May-27 19:00 260 5 24.0
2015-May-27 18:30 230 4 24.0
2015-May-27 18:00 250 4 25.0
2015-May-27 17:30 230 5 25.0
2015-May-27 17:00 220 4 25.0
2015-May-27 16:30 200 4 5.425.0
2015-May-27 16:00 190 6 5.424.0
2015-May-27 15:30 190 7 5.425.0
2015-May-27 15:00 160 8 5.425.0
2015-May-27 14:30 160 9 5.425.0
2015-May-27 14:00 160 10 5.426.0
2015-May-27 13:30 130 9 5.425.0
2015-May-27 13:00 120 9 5.425.0
2015-May-27 12:30 120 11 5.425.0
2015-May-27 12:00 120 11 5.425.0
2015-May-27 11:30 120 12 5.425.0
2015-May-27 11:00 110 12 24.0
2015-May-27 10:30 110 13 24.0
2015-May-27 10:00 110 13 24.0
2015-May-27 09:30 110 12 25.0
2015-May-27 09:00 110 9 24.0
2015-May-27 08:30 090 6 22.0
2015-May-27 08:00 120 7 22.0
2015-May-27 07:30 100 4 22.0
2015-May-27 07:16 100 3 22.0
2015-May-27 07:00 090 4 20.0
2015-May-27 06:30 080 4 20.0
2015-May-27 06:00 070 5 19.0
2015-May-27 05:30 060 6 20.0
2015-May-27 05:00 020 4 19.0
2015-May-27 04:30 340 2 18.0
2015-May-27 04:00 020 4 19.0
2015-May-27 03:30 19.0
2015-May-27 03:00 330 3 19.0
2015-May-27 02:30 300 5 20.0
2015-May-27 02:00 280 7 20.0
2015-May-27 01:30 280 8 20.0
2015-May-27 01:00 280 9 21.0
2015-May-27 00:30 280 9 21.0
2015-May-27 00:00 270 11 21.0
2015-May-26 23:30 270 9 21.0
2015-May-26 23:00 270 8 21.0
2015-May-26 22:30 290 8 22.0
2015-May-26 22:00 290 8 22.0